Location: Tabriz
(38.0800°N, 46.2919°E)
Time: 11:48:25
(UTC+04:30)

ISS - Visible Passes

Search period start: 25 June 2022 00:00
Search period end: 05 July 2022 00:00
Orbit: 414 x 420 km, 51.6° (Epoch: 25 June)

Date Brightness Start Highest point End Pass type
(mag) Time Alt. Az. Time Alt. Az. Time Alt. Az.
25 Jun -1.4 04:18:37 12° SSE 04:19:43 14° SE 04:21:32 10° E visible
26 Jun -3.8 05:05:13 15° SW 05:07:51 82° SE 05:11:13 10° NE visible
27 Jun -3.1 04:18:49 35° S 04:19:38 42° SE 04:22:50 10° ENE visible
28 Jun -1.7 03:32:21 21° ESE 03:32:21 21° ESE 03:34:11 10° ENE visible
28 Jun -2.6 05:05:15 12° W 05:08:05 34° NNW 05:11:12 10° NE visible
29 Jun -3.5 04:18:42 38° W 04:19:42 58° NW 04:23:01 10° NE visible
30 Jun -3.0 03:32:06 51° ENE 03:32:06 51° ENE 03:34:44 10° NE visible
30 Jun -1.4 05:06:09 10° WNW 05:08:28 17° NNW 05:10:47 10° NNE visible
01 Jul -1.1 02:45:26 16° ENE 02:45:26 16° ENE 02:46:16 10° ENE visible
01 Jul -1.9 04:18:19 17° WNW 04:19:57 24° NNW 04:22:44 10° NNE visible
02 Jul -2.5 03:31:35 36° NNW 03:31:35 36° NNW 03:34:36 10° NE visible
02 Jul -0.8 05:08:07 10° NNW 05:08:59 11° NNW 05:09:50 10° N visible
03 Jul -1.5 02:44:48 25° NE 02:44:48 25° NE 02:46:21 10° NE visible
03 Jul -1.0 04:18:34 10° NW 04:20:19 13° NNW 04:22:05 10° NNE visible
04 Jul -0.5 01:57:57 10° NE 01:57:57 10° NE 01:57:58 10° NE visible
04 Jul -1.4 03:30:49 16° NW 03:31:41 18° NNW 03:34:04 10° NNE visible
